Find Starlink 2701

NORAD ID: 48656 Int'l Des: 2021-044 Owner: SPXS Country: US Constellation: starlink operational
LEOCIRCULAR

Live-Position

3D-Globus wird geladen...

Über Starlink 2701

Beschreibung wird geladen...

Nächste Überflüge

Passes for default location (London). Set your location on the main map for personalized predictions.

Höhenverlauf

Loading altitude history...

Zweizeiliger Elementsatz

1 48656U 21044U 26125.60572544 .00004883 00000-0 16898-3 0 9997
2 48656 53.1582 209.2070 0001252 90.1466 269.9679 15.31706170272540
Epoch: 5. Mai 2026 • Age: 14 hours

Aktueller Status

Höhe 473.4 km
Geschwindigkeit 7.63 km/s
Subsatellitenpunkt 38.89°N, 53.51°W
Startdatum 26. Mai 2021
Alter 4.9 years
Typ internet

Technische Details

Klassifizierung Payload
Masse 260.00 kg
Trockenmasse 248.00 kg
Gesamtmasse 260.00 kg
Länge 0.20 m
Durchmesser 2.80 m
Spannweite 9.00 m
Form Box + pan
Hersteller SPXS
Bus-Typ Starlink
Phasenstatus In Orbit
Besitzer/Staat SPXS/US

Most Searched